[[{"header":{"parameterUnit":"m.s-1","parameterCategory":1,"la1":30.2991,"la2":30.254,"lo1":-89.0895,"lo2":-89.0444,"dy":0.0017,"dx":0.0017,"nx":28,"ny":28,"refTime":"2023-08-09T21:00:00:Z","depth":0,"parameterNumber":2,"parameterNumberName":"U-component_of_WINDS"},"data":[0,0,0,0,0,0,0,0,0,0,0,0,0,0,0,0,0,0,0,0,0,0,0,0,0,0,0,0,0,0,0,0,0,0,0,0,0,0,0,0,0,0,0,0,0,0,0,0,0,0,0,0,0,0,0,0,0,0,4.7281,4.7281,0,4.7341,4.7342,4.7343,4.7219,4.7215,4.7211,4.7207,4.7271,4.7276,4.7281,0,0,0,0,0,0,0,0,0,0,0,0,0,4.7057,4.7062,4.728,4.7281,4.7282,4.7341,4.7342,4.7343,4.722,4.7215,4.721,4.7205,4.7269,4.7275,4.7282,0,0,0,0,0,0,0,0,0,0,0,0,0,4.714,4.7064,4.728,4.7228,4.7224,4.7341,4.7342,4.7343,4.7221,4.7215,4.7209,4.7203,4.7267,4.7275,4.7283,4.7455,0,0,4.7308,4.7311,0,0,0,0,0,0,0,0,4.7135,4.7148,4.7235,4.7232,4.7227,4.7266,4.7287,4.7381,4.7222,4.7222,4.7207,4.72,4.7274,4.7282,4.7306,4.7458,4.7461,4.7309,4.7314,4.7317,4.7319,0,0,0,0,0,0,0,4.713,4.7145,4.7304,4.7236,4.7232,4.7201,4.7206,4.7304,4.7281,4.7221,4.7213,4.7221,4.7271,4.7299,4.7307,4.7461,4.7308,4.7316,4.7321,4.7324,4.7754,4.776,0,0,0,0,0,0,4.7131,4.7141,4.7303,4.7306,4.7165,4.721,4.7215,4.726,4.728,4.7277,4.7227,4.7216,4.7288,4.7297,4.7309,4.7508,4.7317,4.7325,4.7329,4.7748,4.7756,4.7763,0,0,0,0,0,0,4.7126,4.7146,4.73,4.7221,4.7239,4.722,4.7271,4.7264,4.7292,4.7284,4.7279,4.7259,4.7283,4.7297,4.7419,4.7509,4.7328,4.7336,4.774,4.775,4.7759,4.7911,0,0,0,0,0,0,4.7121,4.7146,4.7211,4.7224,4.7243,4.741,4.7277,4.727,4.7306,4.7292,4.7313,4.7311,4.728,4.7407,4.7427,4.7517,4.7342,4.7732,4.7744,4.7756,4.7898,4.7925,4.7948,0,0,0,0,0,4.7113,4.7252,4.7215,4.7235,4.7324,4.7415,4.7426,4.7387,4.7314,4.7379,4.7373,4.731,4.7497,4.7421,4.7442,4.7536,4.7726,4.7741,4.7755,4.7887,4.792,4.7947,0,0,0,0,0,0,4.7251,4.7253,4.7211,4.7359,4.7388,4.7394,4.7474,4.7424,4.7474,4.7459,4.7409,4.7415,4.7546,4.7553,4.7469,4.7702,4.7599,4.7618,4.7691,4.7723,4.7747,4.7741,4.7349,0,0,0,0,0,4.7298,4.7371,4.737,4.75,4.7516,4.7494,4.7532,4.7499,4.7527,4.7539,4.7542,4.7572,4.7637,4.7681,4.774,4.7899,4.7901,4.7974,4.8,4.802,4.8037,4.8118,4.815,4.7811,4.7811,4.781,0,0,4.7397,4.7407,4.7456,4.7528,4.7546,4.7622,4.7504,4.7591,4.7647,4.7552,4.7665,4.767,4.77,4.784,4.7902,4.785,4.8131,4.8039,4.8055,4.806,4.8137,4.8169,4.8197,4.7821,4.7819,4.7817,0,0,4.7614,4.7631,4.774,4.7761,4.779,4.7774,4.78,4.7814,4.7813,4.7927,4.7856,4.7922,4.8036,4.8059,4.8086,4.8313,4.8255,4.8334,4.8463,4.8544,4.857,4.8594,4.8671,4.87,4.8351,4.8352,4.8352,0,4.7733,4.7845,4.7802,4.7893,4.7925,4.7843,4.7951,4.7974,4.8022,4.8046,4.7988,4.8127,4.8142,4.8285,4.834,4.8366,4.8392,4.833,4.857,4.8593,4.8614,4.8688,4.8717,4.8361,4.836,4.8359,4.8358,0,4.7988,4.8067,4.8152,4.8198,4.8241,4.834,4.8312,4.836,4.8324,4.8314,4.843,4.8445,4.8505,4.8537,4.8504,4.8675,4.8642,4.8578,4.8473,4.8656,4.8724,4.8752,4.8374,4.837,4.8368,4.8365,0,0,4.8292,4.8314,4.8345,4.8364,4.839,4.845,4.8546,4.8604,4.8645,4.8682,4.8759,4.8857,4.8797,4.8828,4.8797,4.8868,4.9042,4.8795,4.8794,4.8837,4.9229,4.9274,4.9307,4.9006,4.9011,4.9015,4.9225,0,4.8505,4.8668,4.8632,4.8793,4.8863,4.8787,4.887,4.8895,4.8889,4.8948,4.8941,4.9009,4.8928,4.8945,4.9012,4.9007,4.912,4.8992,4.9075,4.9079,4.9066,4.9343,4.9392,4.9589,4.9252,4.9256,4.926,0,4.8774,4.8819,4.8987,4.9,4.9028,4.9103,4.9152,4.9211,4.9237,4.9228,4.9262,4.9217,4.931,4.9207,4.9335,4.9248,4.9281,4.9284,4.929,4.9294,4.9178,4.9351,4.9651,4.968,4.9302,4.9298,4.9295,0,4.8975,4.9078,4.919,4.921,4.9229,4.9283,4.9293,4.9314,4.9351,4.9394,4.9417,4.9472,4.9501,4.9544,4.9515,4.9443,4.9647,4.9541,4.9639,4.964,4.9683,4.968,4.9989,4.9711,4.971,4.9709,4.9709,0,4.9214,4.9318,4.928,4.9349,4.9463,4.9422,4.9536,4.9538,4.9557,4.9624,4.9563,4.9628,4.9586,4.9648,4.9626,4.9733,4.9748,4.9741,4.9733,4.9745,4.9745,4.9762,4.9747,4.9717,4.9716,4.9714,4.9713,0,4.9455,4.9434,4.9551,4.956,4.9564,4.9648,4.9655,4.9719,4.9708,4.9794,4.9812,4.9795,4.9864,4.984,4.9914,4.9899,5.0035,5.0011,5.0025,5.0018,5.0116,5.0106,5.0444,5.0485,5.0184,5.0187,5.0189,0,4.9607,4.9686,4.9702,4.9743,4.9757,4.9824,4.986,4.9823,4.9864,4.9899,4.9959,5.0022,5.007,5.0184,5.0178,5.0234,5.0209,5.0324,5.0217,5.0225,5.0206,5.02,5.0207,5.0344,5.0348,5.035,5.0353,0,4.9878,4.9864,4.9919,4.997,5.0016,5.0055,5.0088,5.0125,5.0089,5.0138,5.0207,5.0245,5.032,5.0382,5.0433,5.0443,5.0392,5.0387,5.0412,5.0422,5.0426,5.0421,5.008,5.0378,5.0376,5.0374,5.0373,5.0372,5.0077,5.0142,5.0163,5.0226,5.0247,5.028,5.0339,5.0336,5.0393,5.045,5.0425,5.0505,5.0528,5.059,5.0608,5.0669,5.0624,5.0662,5.067,5.0679,5.069,5.0419,5.0679,5.0678,5.0677,5.0677,5.0676,0,5.0341,5.0351,5.041,5.0458,5.0507,5.0456,5.049,5.0534,5.0605,5.0631,5.068,5.0759,5.0819,5.0819,5.0875,5.0924,5.0902,5.094,5.0934,5.0936,5.0728,5.0699,5.0956,5.0956,5.0956,5.0956,5.0956,5.0956,5.0484,5.059,5.0579,5.0695,5.0704,5.078,5.0804,5.0833,5.0854,5.0944,5.0994,5.0994,5.1009,5.1066,5.1119,5.1117,5.1139,5.1185,5.1175,5.0979,5.0951,5.0925,5.0897,5.1191,5.1192,5.1377,5.1378,5.138]},{"header":{"parameterUnit":"m.s-1","parameterCategory":1,"la1":30.2991,"la2":30.254,"lo1":-89.0895,"lo2":-89.0444,"dy":0.0017,"dx":0.0017,"nx":28,"ny":28,"refTime":"2023-08-09T21:00:00:Z","depth":0,"parameterNumber":3,"parameterNumberName":"V-component_of_WINDS"},"data":[0,0,0,0,0,0,0,0,0,0,0,0,0,0,0,0,0,0,0,0,0,0,0,0,0,0,0,0,0,0,0,0,0,0,0,0,0,0,0,0,0,0,0,0,0,0,0,0,0,0,0,0,0,0,0,0,0,0,5.1602,5.1604,0,5.1759,5.1761,5.1763,5.1735,5.1732,5.173,5.1727,5.1888,5.1894,5.1901,0,0,0,0,0,0,0,0,0,0,0,0,0,5.1275,5.1281,5.1602,5.1604,5.1606,5.1759,5.1761,5.1763,5.1736,5.1732,5.1729,5.1726,5.1886,5.1894,5.1902,0,0,0,0,0,0,0,0,0,0,0,0,0,5.1423,5.1283,5.1601,5.161,5.1613,5.1759,5.1761,5.1764,5.1736,5.1732,5.1728,5.1724,5.1883,5.1893,5.1903,5.205,0,0,5.1935,5.1939,0,0,0,0,0,0,0,0,5.1415,5.1435,5.1607,5.161,5.1613,5.1723,5.1705,5.186,5.1737,5.1689,5.1727,5.1722,5.1836,5.185,5.1889,5.2057,5.2064,5.1935,5.1942,5.1946,5.1949,0,0,0,0,0,0,0,5.1405,5.1428,5.1664,5.161,5.1613,5.1606,5.1622,5.1734,5.1784,5.1693,5.1692,5.1711,5.1837,5.1879,5.1893,5.2067,5.1935,5.1944,5.1951,5.1955,5.2361,5.2365,0,0,0,0,0,0,5.1392,5.142,5.1659,5.1669,5.1502,5.1615,5.1634,5.1692,5.1783,5.1793,5.1714,5.1709,5.1864,5.1881,5.1898,5.2074,5.1946,5.1956,5.1962,5.2356,5.2362,5.2367,0,0,0,0,0,0,5.1385,5.1413,5.1653,5.1544,5.1574,5.1625,5.1691,5.1697,5.1739,5.1799,5.1807,5.1748,5.1861,5.1884,5.2012,5.2079,5.196,5.197,5.2351,5.2358,5.2364,5.2428,0,0,0,0,0,0,5.1376,5.1411,5.1468,5.1546,5.158,5.1765,5.1695,5.1703,5.1757,5.1752,5.1833,5.1842,5.1859,5.1997,5.2022,5.2091,5.1978,5.2345,5.2354,5.2362,5.242,5.2436,5.245,0,0,0,0,0,5.1364,5.148,5.1471,5.15,5.1652,5.1769,5.1788,5.1806,5.1763,5.182,5.1858,5.1839,5.2068,5.201,5.2038,5.2112,5.2341,5.2351,5.2361,5.2413,5.2433,5.245,0,0,0,0,0,0,5.141,5.1491,5.1481,5.1626,5.1691,5.1764,5.1836,5.1827,5.1905,5.1896,5.1915,5.1933,5.2063,5.21,5.2034,5.2257,5.2198,5.2215,5.2228,5.2247,5.2262,5.225,5.1986,0,0,0,0,0,5.1437,5.1525,5.1591,5.1712,5.1745,5.1785,5.1837,5.1844,5.1912,5.1939,5.1986,5.2052,5.2138,5.2195,5.2278,5.2426,5.2442,5.249,5.2505,5.2517,5.2531,5.2609,5.2631,5.2401,5.2401,5.24,0,0,5.1493,5.1548,5.1603,5.1722,5.1773,5.1863,5.1808,5.1906,5.1973,5.1954,5.2077,5.2114,5.2189,5.2327,5.239,5.2362,5.2598,5.253,5.2539,5.2547,5.2622,5.2644,5.2663,5.2408,5.2406,5.2405,0,0,5.1642,5.1693,5.1798,5.185,5.1928,5.1954,5.1979,5.2053,5.2077,5.2201,5.2188,5.2267,5.2416,5.2469,5.2516,5.2682,5.2668,5.2709,5.2787,5.2863,5.2881,5.2897,5.2955,5.2975,5.2723,5.2723,5.2723,0,5.1702,5.1837,5.1854,5.1953,5.2005,5.1992,5.2098,5.2147,5.2248,5.2284,5.2251,5.2436,5.2486,5.2635,5.2675,5.2714,5.2742,5.2699,5.2877,5.2894,5.2909,5.2964,5.2986,5.2727,5.2727,5.2726,5.2726,0,5.1906,5.2,5.2076,5.2173,5.2234,5.2336,5.2367,5.2427,5.2429,5.2458,5.2583,5.2642,5.2736,5.2772,5.2776,5.2921,5.2901,5.2873,5.2813,5.2935,5.2987,5.3008,5.2733,5.2732,5.2731,5.2729,0,0,5.2088,5.2192,5.2219,5.2262,5.2346,5.2419,5.2519,5.2611,5.266,5.273,5.2814,5.2939,5.2913,5.2966,5.2975,5.3043,5.3168,5.3006,5.3008,5.3032,5.3329,5.3349,5.3373,5.3159,5.3163,5.3167,5.3322,0,5.2243,5.2421,5.2438,5.2597,5.2683,5.2671,5.2758,5.2819,5.2848,5.2925,5.2957,5.3045,5.3005,5.3036,5.3102,5.3139,5.3228,5.3128,5.3236,5.324,5.3216,5.34,5.3422,5.3566,5.3343,5.3346,5.3349,0,5.2448,5.2522,5.269,5.2759,5.2796,5.2874,5.2958,5.3032,5.31,5.3116,5.3174,5.3174,5.3277,5.3214,5.3355,5.3286,5.3332,5.3356,5.3362,5.3372,5.3301,5.3413,5.3613,5.3634,5.3381,5.3379,5.3376,0,5.2561,5.2703,5.2821,5.2858,5.2944,5.2998,5.3036,5.31,5.3153,5.3226,5.326,5.3345,5.3391,5.3456,5.3478,5.3431,5.3617,5.3557,5.3632,5.3631,5.3671,5.3668,5.3878,5.3703,5.3702,5.3702,5.3702,0,5.2731,5.2833,5.2873,5.2945,5.3059,5.3077,5.3189,5.3224,5.3281,5.3359,5.3354,5.3427,5.3453,5.353,5.3549,5.3661,5.3682,5.3697,5.3701,5.3697,5.3695,5.3726,5.3716,5.3708,5.3706,5.3705,5.3704,0,5.2876,5.2907,5.3034,5.3104,5.3124,5.3204,5.3264,5.3333,5.3361,5.3459,5.3484,5.3527,5.3618,5.3647,5.3757,5.3768,5.3899,5.3895,5.3876,5.3876,5.3949,5.3941,5.4186,5.4218,5.4023,5.4025,5.4026,0,5.2982,5.306,5.3138,5.3189,5.3229,5.3313,5.3367,5.3388,5.3444,5.3526,5.3585,5.3674,5.3747,5.3892,5.3933,5.4017,5.4013,5.4093,5.4025,5.4019,5.4012,5.4006,5.4013,5.4105,5.4107,5.4109,5.411,0,5.3165,5.3176,5.3254,5.3337,5.3401,5.3468,5.3531,5.3574,5.3604,5.3667,5.3759,5.3816,5.3927,5.4016,5.41,5.4138,5.4129,5.4131,5.4153,5.4149,5.4135,5.4142,5.3909,5.4125,5.4124,5.4123,5.4122,5.4121,5.3293,5.3361,5.3426,5.3512,5.3562,5.3622,5.3689,5.3725,5.3803,5.3895,5.3902,5.4002,5.4065,5.4178,5.422,5.4297,5.4274,5.4306,5.4314,5.4321,5.4326,5.4123,5.4313,5.4313,5.4312,5.4312,5.4312,0,5.3475,5.3515,5.3595,5.3683,5.3751,5.3737,5.3806,5.3863,5.3951,5.4011,5.4082,5.4187,5.4273,5.432,5.4405,5.4458,5.4456,5.4479,5.4475,5.4483,5.4343,5.4314,5.4479,5.4479,5.4479,5.4479,5.4479,5.4479,5.3577,5.3691,5.3709,5.3847,5.3887,5.3984,5.4025,5.4079,5.4127,5.4245,5.4315,5.4346,5.4401,5.4489,5.4566,5.4578,5.4609,5.4635,5.4643,5.4511,5.4494,5.4477,5.4451,5.4642,5.4642,5.4778,5.4779,5.478]}]]